Location: ???????
(55.4362°N, 38.1183°E)
Time: 18:18:16
(UTC+00:00)

Cosmos 2360 Rocket - Pass Details

Date: 17 June 2021
Orbit: 835 x 843 km, 71.0° (Epoch: 29 July)

Event Time Altitude Azimuth Distance (km) Brightness Sun altitude
Rises 21:32:07 0° 261° (W) 3,393 5.2 -11.2°
Reaches altitude 10° 21:34:58 10° 273° (W) 2,459 4.7 -11.1°
Maximum altitude 21:39:39 26° 330° (NNW) 1,594 4.4 -11.1°
Drops below altitude 10° 21:44:22 10° 26° (NNE) 2,462 5.8 -11.1°
Sets 21:47:14 0° 39° (NE) 3,398 6.3 -11.1°
